timestamp,wind_dir_avg,wind_spd_avg,wind_spd_max_dir,wind_spd_gust,battery_voltage,lat,long
2021-03-13 00:04:01+00:00,233.0,8.57,226.0,10.06,12.41,47.59359,-54.27349
2021-03-13 00:14:01+00:00,231.0,8.62,230.0,9.68,12.41,47.59359,-54.27349
2021-03-13 00:24:01+00:00,231.0,9.29,232.0,10.69,12.41,47.59359,-54.27349
2021-03-13 00:34:01+00:00,231.0,8.65,233.0,10.35,12.41,47.59359,-54.27349
2021-03-13 00:44:01+00:00,229.0,9.05,223.0,11.19,12.41,47.59359,-54.27349
2021-03-13 00:54:01+00:00,230.0,9.04,229.0,10.55,12.41,47.59359,-54.27349
2021-03-13 01:04:01+00:00,231.0,8.72,231.0,10.33,12.41,47.59359,-54.27349
2021-03-13 01:14:01+00:00,229.0,8.0,236.0,10.15,12.41,47.59359,-54.27349
2021-03-13 01:24:01+00:00,225.0,9.22,224.0,10.84,12.41,47.59359,-54.27349
2021-03-13 01:34:01+00:00,224.0,8.98,214.0,11.25,12.41,47.59359,-54.27349
2021-03-13 01:44:01+00:00,225.0,9.19,227.0,10.73,12.41,47.59359,-54.27349
2021-03-13 01:54:01+00:00,227.0,8.84,228.0,10.2,12.41,47.59359,-54.27349
2021-03-13 02:04:01+00:00,219.0,7.63,220.0,8.65,12.41,47.59359,-54.27349
2021-03-13 02:14:01+00:00,218.0,8.31,219.0,8.91,12.41,47.59359,-54.27349
2021-03-13 02:24:01+00:00,210.0,8.85,211.0,10.02,12.41,47.59359,-54.27349
2021-03-13 02:34:01+00:00,212.0,10.57,213.0,11.86,12.41,47.59359,-54.27349
2021-03-13 02:44:01+00:00,206.0,10.22,207.0,11.43,12.41,47.59359,-54.27349
2021-03-13 02:54:01+00:00,205.0,10.16,203.0,11.42,12.41,47.59359,-54.27349
2021-03-13 03:04:01+00:00,208.0,11.52,207.0,12.69,12.41,47.59359,-54.27349
2021-03-13 03:14:01+00:00,211.0,10.23,206.0,12.28,12.33,47.59359,-54.27349
2021-03-13 03:24:01+00:00,214.0,11.37,214.0,12.76,12.33,47.59359,-54.27349
2021-03-13 03:34:01+00:00,216.0,10.51,221.0,12.21,12.33,47.59359,-54.27349
2021-03-13 03:44:01+00:00,217.0,9.28,216.0,11.14,12.33,47.59359,-54.27349
2021-03-13 03:54:01+00:00,221.0,8.08,224.0,9.04,12.33,47.59359,-54.27349
2021-03-13 04:04:01+00:00,223.0,6.85,223.0,8.07,12.33,47.59359,-54.27349
2021-03-13 04:14:01+00:00,232.0,7.01,234.0,7.9,12.33,47.59359,-54.27349
2021-03-13 04:24:01+00:00,234.0,7.72,236.0,8.64,12.33,47.59359,-54.27349
2021-03-13 04:34:01+00:00,232.0,8.37,234.0,9.71,12.33,47.59359,-54.27349
2021-03-13 04:44:01+00:00,232.0,8.23,226.0,9.63,12.33,47.59359,-54.27349
2021-03-13 04:54:01+00:00,231.0,8.89,228.0,10.4,12.33,47.59359,-54.27349
2021-03-13 05:04:01+00:00,232.0,8.69,229.0,9.79,12.33,47.59359,-54.27349
2021-03-13 05:14:01+00:00,233.0,7.8,231.0,9.15,12.33,47.59359,-54.27349
2021-03-13 05:24:01+00:00,232.0,8.19,231.0,9.31,12.33,47.59359,-54.27349
2021-03-13 05:34:01+00:00,230.0,8.04,228.0,9.05,12.33,47.59359,-54.27349
2021-03-13 05:44:01+00:00,227.0,7.74,232.0,8.92,12.33,47.59359,-54.27349
2021-03-13 05:54:01+00:00,227.0,7.49,229.0,8.43,12.33,47.59359,-54.27349
2021-03-13 06:04:01+00:00,229.0,6.98,239.0,8.07,12.33,47.59359,-54.27349
2021-03-13 06:14:01+00:00,228.0,7.11,222.0,8.95,12.25,47.59359,-54.27349
2021-03-13 06:24:01+00:00,229.0,6.87,233.0,8.44,12.25,47.59359,-54.27349
2021-03-13 06:34:01+00:00,220.0,5.8,218.0,6.69,12.25,47.59359,-54.27349
2021-03-13 06:44:01+00:00,219.0,7.05,215.0,8.21,12.25,47.59359,-54.27349
2021-03-13 06:54:01+00:00,214.0,7.86,213.0,8.79,12.25,47.59359,-54.27349
2021-03-13 07:04:01+00:00,212.0,7.85,213.0,8.44,12.25,47.59359,-54.27349
2021-03-13 07:14:01+00:00,213.0,7.59,218.0,8.91,12.17,47.59359,-54.27349
2021-03-13 07:24:01+00:00,213.0,8.29,219.0,9.4,12.17,47.59359,-54.27349
2021-03-13 07:34:01+00:00,212.0,8.46,211.0,9.01,12.17,47.59359,-54.27349
2021-03-13 07:44:01+00:00,214.0,7.97,216.0,9.06,12.17,47.59359,-54.27349
2021-03-13 07:54:01+00:00,213.0,7.89,212.0,8.71,12.17,47.59359,-54.27349
2021-03-13 08:04:01+00:00,215.0,7.02,215.0,8.02,12.17,47.59359,-54.27349
2021-03-13 08:14:01+00:00,215.0,6.76,218.0,7.52,12.17,47.59359,-54.27349
2021-03-13 08:24:01+00:00,217.0,7.04,217.0,7.97,12.17,47.59359,-54.27349
2021-03-13 08:34:01+00:00,217.0,6.46,216.0,7.0,12.17,47.59359,-54.27349
2021-03-13 08:44:01+00:00,218.0,5.92,226.0,6.97,12.17,47.59359,-54.27349
2021-03-13 08:54:01+00:00,216.0,5.32,218.0,6.04,12.17,47.59359,-54.27349
2021-03-13 09:04:01+00:00,214.0,6.34,207.0,7.64,12.17,47.59359,-54.27349
2021-03-13 09:14:01+00:00,212.0,8.09,211.0,9.01,12.17,47.59359,-54.27349
2021-03-13 09:24:01+00:00,212.0,8.68,214.0,9.62,12.17,47.59359,-54.27349
2021-03-13 09:34:01+00:00,213.0,8.18,208.0,9.17,12.17,47.59359,-54.27349
2021-03-13 09:44:01+00:00,213.0,7.3,214.0,7.92,12.17,47.59359,-54.27349
2021-03-13 09:54:01+00:00,207.0,7.83,210.0,8.53,12.17,47.59359,-54.27349
2021-03-13 10:04:01+00:00,214.0,8.25,217.0,9.01,12.17,47.59359,-54.27349
2021-03-13 10:14:01+00:00,214.0,8.02,213.0,9.01,12.25,47.59359,-54.27349
2021-03-13 10:24:01+00:00,217.0,7.73,216.0,8.6,12.25,47.59359,-54.27349
2021-03-13 10:34:01+00:00,214.0,7.26,213.0,8.03,12.25,47.59359,-54.27349
2021-03-13 10:44:01+00:00,217.0,7.07,216.0,7.85,12.25,47.59359,-54.27349
2021-03-13 10:54:01+00:00,221.0,6.04,217.0,7.2,12.25,47.59359,-54.27349
2021-03-13 11:04:01+00:00,227.0,5.4,225.0,6.11,12.25,47.59359,-54.27349
2021-03-13 11:14:01+00:00,232.0,4.52,235.0,4.81,13.84,47.59359,-54.27349
2021-03-13 11:24:01+00:00,233.0,3.91,230.0,4.27,13.84,47.59359,-54.27349
2021-03-13 11:34:01+00:00,214.0,4.62,217.0,5.24,13.84,47.59359,-54.27349
2021-03-13 11:44:01+00:00,213.0,7.32,214.0,8.88,13.84,47.59359,-54.27349
2021-03-13 11:54:01+00:00,214.0,7.3,212.0,8.53,13.84,47.59359,-54.27349
2021-03-13 12:04:01+00:00,204.0,7.29,205.0,8.78,13.84,47.59359,-54.27349
2021-03-13 12:14:01+00:00,202.0,8.9,207.0,9.94,13.76,47.59359,-54.27349
2021-03-13 12:24:01+00:00,210.0,7.8,212.0,8.93,13.76,47.59359,-54.27349
2021-03-13 12:34:01+00:00,204.0,7.02,211.0,8.09,13.76,47.59359,-54.27349
2021-03-13 12:44:01+00:00,208.0,7.0,204.0,7.97,13.76,47.59359,-54.27349
2021-03-13 12:54:01+00:00,207.0,7.09,205.0,8.02,13.76,47.59359,-54.27349
2021-03-13 13:04:01+00:00,213.0,6.85,216.0,7.55,13.76,47.59359,-54.27349
2021-03-13 13:14:01+00:00,201.0,5.16,211.0,6.32,14.32,47.59359,-54.27349
2021-03-13 13:24:01+00:00,169.0,5.69,212.0,6.6,14.32,47.59359,-54.27349
2021-03-13 13:34:01+00:00,177.0,6.64,202.0,7.88,14.32,47.59359,-54.27349
2021-03-13 13:44:01+00:00,203.0,8.38,211.0,10.12,14.32,47.59359,-54.27349
2021-03-13 13:54:01+00:00,210.0,8.33,211.0,9.61,14.32,47.59359,-54.27349
2021-03-13 14:04:01+00:00,205.0,9.11,208.0,10.06,14.32,47.59359,-54.27349
2021-03-13 14:14:01+00:00,194.0,8.15,204.0,9.88,14.32,47.59359,-54.27349
2021-03-13 14:24:01+00:00,207.0,8.76,203.0,9.83,14.32,47.59359,-54.27349
2021-03-13 14:34:01+00:00,201.0,8.08,198.0,11.46,14.32,47.59359,-54.27349
2021-03-13 14:44:01+00:00,203.0,8.45,202.0,9.37,14.32,47.59359,-54.27349
2021-03-13 14:54:01+00:00,202.0,8.83,206.0,10.03,14.32,47.59359,-54.27349
2021-03-13 15:04:01+00:00,207.0,9.14,204.0,10.49,14.32,47.59359,-54.27349
2021-03-13 15:14:01+00:00,204.0,8.46,205.0,10.0,13.68,47.59359,-54.27349
2021-03-13 15:24:01+00:00,207.0,8.86,207.0,10.06,13.68,47.59359,-54.27349
2021-03-13 15:34:01+00:00,207.0,8.83,210.0,9.9,13.68,47.59359,-54.27349
2021-03-13 15:44:01+00:00,209.0,8.2,206.0,9.26,13.68,47.59359,-54.27349
2021-03-13 15:54:01+00:00,207.0,8.48,209.0,9.89,13.68,47.59359,-54.27349
2021-03-13 16:04:01+00:00,204.0,9.1,203.0,10.08,13.68,47.59359,-54.27349
2021-03-13 16:14:01+00:00,206.0,8.83,202.0,9.77,14.08,47.59359,-54.27349
2021-03-13 16:24:01+00:00,204.0,9.13,207.0,9.98,14.08,47.59359,-54.27349
2021-03-13 16:34:01+00:00,204.0,8.48,206.0,9.56,14.08,47.59359,-54.27349
2021-03-13 16:44:01+00:00,203.0,8.34,203.0,9.45,14.08,47.59359,-54.27349
2021-03-13 16:54:01+00:00,205.0,8.46,205.0,9.33,14.08,47.59359,-54.27349
2021-03-13 17:04:01+00:00,199.0,7.29,203.0,8.3,14.08,47.59359,-54.27349
2021-03-13 17:14:01+00:00,204.0,7.52,205.0,8.25,14.4,47.59359,-54.27349
2021-03-13 17:24:01+00:00,208.0,7.57,208.0,8.54,14.4,47.59359,-54.27349
2021-03-13 17:34:01+00:00,211.0,6.47,211.0,7.13,14.4,47.59359,-54.27349
2021-03-13 17:44:01+00:00,209.0,6.52,211.0,7.06,14.4,47.59359,-54.27349
2021-03-13 17:54:01+00:00,212.0,6.47,210.0,7.2,14.4,47.59359,-54.27349
2021-03-13 18:04:01+00:00,221.0,6.53,222.0,7.59,14.4,47.59359,-54.27349
2021-03-13 18:14:01+00:00,226.0,6.02,238.0,8.68,14.4,47.59359,-54.27349
2021-03-13 18:24:01+00:00,247.0,10.22,252.0,12.14,14.4,47.59359,-54.27349
2021-03-13 18:34:01+00:00,250.0,8.99,244.0,10.18,14.4,47.59359,-54.27349
2021-03-13 18:44:01+00:00,246.0,8.24,251.0,9.91,14.4,47.59359,-54.27349
2021-03-13 18:54:01+00:00,250.0,8.58,252.0,9.75,14.4,47.59359,-54.27349
2021-03-13 19:04:01+00:00,244.0,8.18,238.0,8.8,14.4,47.59359,-54.27349
2021-03-13 19:14:01+00:00,238.0,7.57,239.0,8.18,13.92,47.59359,-54.27349
2021-03-13 19:24:01+00:00,237.0,6.5,236.0,7.37,13.92,47.59359,-54.27349
2021-03-13 19:34:01+00:00,243.0,6.47,242.0,7.33,13.92,47.59359,-54.27349
2021-03-13 19:44:01+00:00,269.0,3.94,266.0,4.47,13.92,47.59359,-54.27349
2021-03-13 19:54:01+00:00,255.0,3.78,256.0,4.23,13.92,47.59359,-54.27349
2021-03-13 20:04:01+00:00,279.0,6.69,276.0,8.02,13.92,47.59359,-54.27349
2021-03-13 20:14:01+00:00,292.0,6.59,297.0,7.44,13.6,47.59359,-54.27349
2021-03-13 20:24:01+00:00,281.0,6.18,285.0,7.35,13.6,47.59359,-54.27349
2021-03-13 20:34:01+00:00,285.0,7.67,285.0,8.36,13.6,47.59359,-54.27349
2021-03-13 20:44:01+00:00,268.0,7.4,271.0,8.07,13.6,47.59359,-54.27349
2021-03-13 20:54:01+00:00,242.0,6.24,240.0,7.19,13.6,47.59359,-54.27349
2021-03-13 21:04:01+00:00,246.0,4.9,243.0,5.69,13.6,47.59359,-54.27349
2021-03-13 21:14:01+00:00,251.0,6.1,254.0,6.64,13.05,47.59359,-54.27349
2021-03-13 21:24:01+00:00,245.0,5.55,250.0,6.47,13.05,47.59359,-54.27349
2021-03-13 21:34:01+00:00,255.0,4.22,248.0,4.98,13.05,47.59359,-54.27349
2021-03-13 21:44:01+00:00,257.0,4.72,253.0,5.14,13.05,47.59359,-54.27349
2021-03-13 21:54:01+00:00,258.0,3.24,254.0,3.75,13.05,47.59359,-54.27349
2021-03-13 22:04:01+00:00,242.0,5.61,239.0,6.75,13.05,47.59359,-54.27349
2021-03-13 22:14:01+00:00,234.0,4.92,233.0,5.37,12.57,47.59359,-54.27349
2021-03-13 22:24:01+00:00,243.0,5.88,241.0,6.58,12.57,47.59359,-54.27349
2021-03-13 22:34:01+00:00,254.0,6.1,259.0,7.12,12.57,47.59359,-54.27349
2021-03-13 22:44:01+00:00,262.0,7.38,267.0,8.58,12.57,47.59359,-54.27349
2021-03-13 22:54:01+00:00,256.0,4.92,256.0,5.29,12.57,47.59359,-54.27349
2021-03-13 23:04:01+00:00,255.0,5.96,252.0,6.55,12.57,47.59359,-54.27349
2021-03-13 23:14:01+00:00,271.0,7.87,273.0,9.04,12.49,47.59359,-54.27349
2021-03-13 23:24:01+00:00,275.0,8.21,271.0,9.14,12.49,47.59359,-54.27349
2021-03-13 23:34:01+00:00,277.0,7.32,278.0,8.14,12.49,47.59359,-54.27349
2021-03-13 23:44:01+00:00,271.0,7.59,268.0,8.87,12.49,47.59359,-54.27349
2021-03-13 23:54:01+00:00,265.0,6.64,265.0,7.82,12.49,47.59359,-54.27349
